Naples, Italy

7:29 PM CET on March 25, 2017 (GMT +0100)
Naples

Weather History for LIRN - January, 2013

Change the Weather History Date:

Wednesday, January 16, 2013

  Actual Average Record
Temperature  
Mean Temperature 47 °F -  
Max Temperature 53 °F 55 °F 62 °F (1998)
Min Temperature 41 °F 40 °F 32 °F (2002)
Degree Days  
Heating Degree Days 18    
Moisture  
Dew Point 39 °F    
Average Humidity 78    
Maximum Humidity 93    
Minimum Humidity 54    
Precipitation  
Precipitation 0.00 in 0.13 in - ()
Sea Level Pressure  
Sea Level Pressure 29.54 in    
Wind  
Wind Speed 8 mph ()    
Max Wind Speed 25 mph    
Max Gust Speed 39 mph    
Visibility 5.5 miles    
Events Rain , Thunderstorm    
Averages and records for this station are not official NWS values.
T = Trace of Precipitation, MM = Missing Value Source: Averaged Metar Reports

Daily Weather History Graph

Daily Weather History Graph

Search for Another Location

Airport or City:

Trip Planner

Search our weather history database for the weather conditions in past years. The results will help you decide how hot, cold, wet, or windy it might be!

Date:

Astronomy

Jan. 16, 2013 Rise Set
Actual Time 7:24 AM CET 5:00 PM CET
Civil Twilight 6:54 AM CET 5:31 PM CET
Nautical Twilight 6:20 AM CET 6:04 PM CET
Astronomical Twilight 5:47 AM CET 6:37 PM CET
Moon 9:49 AM CET (1/16) 10:37 PM CET (1/16)
Length of Visible Light 10h 36m
Length of Day
9h 36m
Waxing Crescent, 25% of the Moon is Illuminated
Jan 16
Waxing Crescent
Jan 19
First Quarter
Jan 27
Full
Feb 3
Last Quarter
Feb 10
New

Hourly Weather History & Observations

Time (CET) Temp. Windchill Dew Point Humidity Pressure Visibility Wind Dir Wind Speed Gust Speed Precip Events Conditions
12:20 AM 44.6 °F - 42.8 °F 93% 29.65 in 5.0 mi Variable 1.2 mph - N/A   Light Drizzle
12:50 AM 48.2 °F - 44.6 °F 87% 29.62 in 5.0 mi SSE 5.8 mph - N/A Rain Light Rain
1:20 AM 48.2 °F - 44.6 °F 87% 29.62 in 5.0 mi SE 6.9 mph - N/A   Light Drizzle
1:50 AM 51.8 °F - 44.6 °F 76% 29.62 in 5.0 mi SSW 12.7 mph 24.2 mph N/A Rain Light Rain
2:20 AM 48.2 °F - 42.8 °F 82% 29.59 in 6.2 mi South 4.6 mph - N/A   Scattered Clouds
2:50 AM 53.6 °F - 44.6 °F 72% 29.56 in 6.2 mi South 12.7 mph 26.5 mph N/A   Scattered Clouds
3:20 AM 51.8 °F - 42.8 °F 71% 29.53 in 6.2 mi SSE 15.0 mph 34.5 mph N/A Rain Light Rain
3:50 AM 50.0 °F - 46.4 °F 87% 29.50 in 4.3 mi Variable 10.4 mph 23.0 mph N/A Rain Rain
4:20 AM 48.2 °F - 44.6 °F 87% 29.53 in 4.3 mi WSW 21.9 mph - N/A Rain , Thunderstorm Thunderstorms and Rain
4:50 AM 48.2 °F - 42.8 °F 82% 29.53 in 4.3 mi WSW 16.1 mph - N/A Rain , Thunderstorm Thunderstorms and Rain
5:20 AM 50.0 °F - 42.8 °F 76% 29.53 in 6.2 mi WSW 11.5 mph - N/A   Scattered Clouds
5:50 AM 50.0 °F - 41.0 °F 71% 29.53 in 6.2 mi WSW 10.4 mph - N/A   Scattered Clouds
6:20 AM 50.0 °F - 37.4 °F 62% 29.56 in 6.2 mi WSW 12.7 mph - N/A   Scattered Clouds
6:50 AM 48.2 °F - 37.4 °F 66% 29.56 in 6.2 mi WSW 11.5 mph - N/A   Scattered Clouds
7:20 AM 48.2 °F - 33.8 °F 58% 29.56 in 6.2 mi WSW 13.8 mph - N/A   Scattered Clouds
7:50 AM 46.4 °F 42.4 °F 37.4 °F 71% 29.56 in 6.2 mi West 8.1 mph - N/A Rain Light Rain
8:20 AM 48.2 °F - 37.4 °F 66% 29.56 in 6.2 mi SSW 6.9 mph - N/A   Scattered Clouds
8:50 AM 48.2 °F - 37.4 °F 66% 29.56 in 6.2 mi WSW 10.4 mph - N/A   Mostly Cloudy
9:20 AM 50.0 °F - 37.4 °F 62% 29.56 in 6.2 mi SW 10.4 mph - N/A   Scattered Clouds
9:50 AM 50.0 °F - 37.4 °F 62% 29.56 in 6.2 mi SW 11.5 mph 24.2 mph N/A   Scattered Clouds
10:20 AM 50.0 °F - 37.4 °F 62% 29.53 in 6.2 mi SW 15.0 mph - N/A Rain Light Rain
10:50 AM 50.0 °F - 33.8 °F 54% 29.53 in 6.2 mi SW 17.3 mph - N/A   Mostly Cloudy
11:20 AM 44.6 °F 37.8 °F 35.6 °F 71% 29.53 in 5.0 mi WSW 15.0 mph - N/A Rain Rain
11:50 AM 42.8 °F 33.1 °F 37.4 °F 81% 29.53 in 3.7 mi West 25.3 mph 39.1 mph N/A Rain Rain
12:20 PM 46.4 °F 41.1 °F 37.4 °F 71% 29.50 in 6.2 mi SW 11.5 mph - N/A   Scattered Clouds
12:50 PM 46.4 °F 42.4 °F 39.2 °F 76% 29.50 in 6.2 mi WNW 8.1 mph - N/A Rain Light Rain
1:20 PM 46.4 °F 41.9 °F 37.4 °F 71% 29.50 in 6.2 mi West 9.2 mph - N/A   Scattered Clouds
1:50 PM 46.4 °F 41.5 °F 35.6 °F 66% 29.47 in 6.2 mi SW 10.4 mph - N/A Rain Light Rain
2:20 PM 48.2 °F - 37.4 °F 66% 29.47 in 6.2 mi SW 13.8 mph - N/A   Scattered Clouds
2:50 PM 41.0 °F 32.5 °F 37.4 °F 87% 29.50 in 1.6 mi West 17.3 mph 29.9 mph N/A Rain , Thunderstorm Small Hail Showers
3:20 PM 41.0 °F 39.0 °F 39.2 °F 93% 29.50 in 3.7 mi SSW 3.5 mph - N/A Rain , Thunderstorm Thunderstorms and Rain
4:20 PM 42.8 °F 39.3 °F 39.2 °F 87% 29.50 in 5.0 mi West 5.8 mph - N/A   Scattered Clouds
4:50 PM 42.8 °F - 37.4 °F 81% 29.50 in 6.2 mi Variable 1.2 mph - N/A   Partly Cloudy
5:20 PM 41.0 °F 37.1 °F 39.2 °F 93% 29.50 in 6.2 mi East 5.8 mph - N/A   Scattered Clouds
5:50 PM 41.0 °F 39.0 °F 39.2 °F 93% 29.53 in 5.0 mi South 3.5 mph - N/A   Scattered Clouds
6:20 PM 42.8 °F 40.1 °F 39.2 °F 87% 29.53 in 6.2 mi SSE 4.6 mph - N/A   Scattered Clouds
6:50 PM 41.0 °F 39.0 °F 39.2 °F 93% 29.53 in 6.2 mi SSE 3.5 mph - N/A   Scattered Clouds
7:20 PM 41.0 °F 39.0 °F 39.2 °F 93% 29.53 in 6.2 mi SSW 3.5 mph - N/A   Scattered Clouds
7:50 PM 41.0 °F - 39.2 °F 93% 29.53 in 6.2 mi Variable 2.3 mph - N/A   Scattered Clouds
8:20 PM 41.0 °F 38.0 °F 39.2 °F 93% 29.53 in 5.0 mi East 4.6 mph - N/A   Scattered Clouds
8:50 PM 41.0 °F 39.0 °F 37.4 °F 87% 29.53 in 4.3 mi NE 3.5 mph - N/A   Scattered Clouds
9:20 PM 41.0 °F - 39.2 °F 93% 29.53 in 4.3 mi Calm Calm - N/A Rain Light Rain
9:50 PM 41.0 °F - 37.4 °F 87% 29.53 in 5.0 mi Variable 2.3 mph - N/A   Mostly Cloudy
11:20 PM 46.4 °F 43.5 °F 41.0 °F 81% 29.50 in 5.0 mi SW 5.8 mph - N/A   Drizzle
11:50 PM 46.4 °F 44.3 °F 42.8 °F 87% 29.50 in 5.0 mi SW 4.6 mph - N/A Rain Light Rain